User: anonymous   Login
Location: Caltech
(34.1382°N, 118.1253°W)
Time: 13:34:42
(UTC-07:00)
Language:

Saudisat 1A - Orbit

View from above orbital plane
View from above orbital plane
View from above satellite
View from above satellite

Ground track
Ground track

The orbit data is extracted from the following two-line orbital elements,

1 26546U 00057B   18113.91382306  .00000110  00000-0  27005-4 0  9991
2 26546  64.5542  82.6125 0008460 309.7272  50.3092 14.90713013952973
Epoch (UTC): 23 April 2018 21:55:54
Eccentricity: 0.0008460
inclination: 64.5542°
perigee height: 590 km
apogee height: 601 km
right ascension of ascending node: 82.6125°
argument of perigee: 309.7272°
revolutions per day: 14.90713013
mean anomaly at epoch: 50.3092°
orbit number at epoch: 95297

The dashed part of the orbit path shows where the satellite is in the earth's shadow,  

DLR